Regional Weather Roundup
Issued by NWS Albany, NY

Home | Current Version | Previous Version | Text Only | Print | Product List | Glossary On
Versions: 1 2 3 4 5 6 7 8 9 10 11 12 13 14 15 16 17 18 19 20 21 22 23 24 25 26 27 28 29 30 31 32 33 34 35 36 37 38 39 40 41 42 43 44 45 46 47 48 49 50
000
ASUS41 KALY 291410
RWRALY

NEW YORK STATE HOURLY WEATHER ROUNDUP
NATIONAL WEATHER SERVICE ALBANY NY
1000 AM EDT THU JUN 29 2017

NOTE: "FAIR" INDICATES FEW OR NO CLOUDS BELOW 12,000 FEET WITH NO
SIGNIFICANT WEATHER AND/OR NO OBSTRUCTIONS TO VISIBILITY.

NYZ032-033-038>043-046>054-057>066-NYZ062>081-082-084-291500-
EAST


CITY           SKY/WX    TMP DP  RH WIND       PRES   REMARKS
ALBANY         CLOUDY    67  54  63 S8        30.09S
GLENS FALLS    CLOUDY    65  56  72 S8        30.08F
POUGHKEEPSIE   MOSUNNY   73  57  57 VRB6      30.10F
NEWBURGH       PTSUNNY   72  61  68 CALM      30.13F
MONTGOMERY     CLOUDY    72  58  61 SW7       30.11F
WHITE PLAINS   CLOUDY    74  59  59 S5        30.13F
ISLIP          PTSUNNY   73  61  65 SW13G21   30.15F
NEW YORK CITY  PTSUNNY   77  60  55 SW14      30.12F
CENTRAL PARK   SUNNY     75  59  57 VRB7      30.15F
$$

NYZ005>009-017-018-044>046-055-056-291500-
CENTRAL


CITY           SKY/WX    TMP DP  RH WIND       PRES   REMARKS
FULTON         CLOUDY    67  57  70 VRB3      30.00F
SYRACUSE       CLOUDY    68  57  68 E6        30.01F
ROME           PTSUNNY   66  57  72 SE6       30.05F
ELMIRA         MOSUNNY   71  59  65 CALM      30.04F
BINGHAMTON     LGT RAIN  62  53  72 S8        30.08F
MONTICELLO     CLOUDY    68  55  64 W5        30.15S
$$

NYZ026>034-041>043-087-291500-
NORTH


CITY           SKY/WX    TMP DP  RH WIND       PRES   REMARKS
WATERTOWN      LGT RAIN  64  60  87 SE6       30.00F
FORT DRUM      NOT AVBL
OGDENSBURG     LGT RAIN  63  60  92 S3        30.02F
MASSENA        LGT RAIN  65  59  81 S5        30.01F
SARANAC LAKE   CLOUDY    59  56  89 SE3       30.07F
PLATTSBURGH    LGT RAIN  64  56  75 CALM      30.05S
$$

NYZ001>004-010>016-019>021-085-291500-
WEST


CITY           SKY/WX    TMP DP  RH WIND       PRES   REMARKS
NIAGARA FALLS  CLOUDY    72  56  57 SW16      29.91F
BUFFALO        CLOUDY    71  55  56 S16       29.92F
DUNKIRK        CLOUDY    73  57  57 S18G25    29.93F
JAMESTOWN      CLOUDY    68  54  60 SW12G20   30.01S
WELLSVILLE     MOSUNNY   69  53  56 SW13G22   30.07F
ROCHESTER      CLOUDY    70  58  65 S12G18    29.95F
PENN YAN       CLOUDY    69  53  56 S12       30.02F
$$

             KEY
       WCI = WIND CHILL INDEX
       VSB = VISIBILITY
       HX  = HEAT INDEX
$$



USA.gov is the U.S. government's official web portal to all federal, state and local government web resources and services.